EW8829 Weather Reports


Display with metric or nautical units.
time (UTC)temp
F
wind
direction
speed
MPH
gust
MPH
rain 1hr
in
rain 24hr
in
rain mn
in
humidity
%
barometer
mb
20260505035706 62 155 1.0 4.0 0.00 0.00 0.00 53 1004.8
20260505035202 62 245 4.0 4.0 0.00 0.00 0.00 53 1004.7
20260505034658 63 243 3.0 3.0 0.00 0.00 0.00 53 1004.6
20260505034156 63 188 2.0 4.0 0.00 0.00 0.00 52 1004.6
20260505033652 62 206 6.0 6.0 0.00 0.00 0.00 52 1004.7
20260505033151 63 189 2.0 5.0 0.00 0.00 0.00 52 1004.8
20260505032648 63 229 6.0 6.0 0.00 0.00 0.00 51 1004.8
20260505032144 63 267 6.0 6.0 0.00 0.00 0.00 51 1004.7
20260505031642 64 233 2.0 11.0 0.00 0.00 0.00 50 1004.8
20260505031137 63 188 4.0 5.0 0.00 0.00 0.00 51 1004.8
20260505030635 64 85 2.0 12.0 0.00 0.00 0.00 50 1004.8
20260505030130 64 97 4.0 9.0 0.00 0.00 0.00 50 1004.9
20260505025626 64 241 4.0 4.0 0.00 0.00 0.00 50 1004.8
20260505025125 64 297 3.0 8.0 0.00 0.00 0.00 49 1004.8
20260505024622 64 7 2.0 6.0 0.00 0.00 0.00 50 1004.6
20260505024119 64 117 0.0 5.0 0.00 0.00 0.00 49 1005.0
20260505023617 64 181 2.0 6.0 0.00 0.00 0.00 49 1005.1
20260505023114 64 261 2.0 4.0 0.00 0.00 0.00 49 1004.8
20260505022611 64 289 2.0 7.0 0.00 0.00 0.00 48 1005.0
20260505022108 64 297 4.0 10.0 0.00 0.00 0.00 48 1005.1
20260505021605 64 266 3.0 4.0 0.00 0.00 0.00 49 1005.1
20260505021102 64 259 2.0 4.0 0.00 0.00 0.00 48 1005.1
20260505020602 65 162 3.0 6.0 0.00 0.00 0.00 48 1005.0
20260505020059 65 189 1.0 5.0 0.00 0.00 0.00 47 1005.0
20260505015556 64 239 2.0 4.0 0.00 0.00 0.00 47 1005.0
20260505015053 64 265 2.0 6.0 0.00 0.00 0.00 47 1004.8
20260505014549 64 200 3.0 5.0 0.00 0.00 0.00 47 1004.9
20260505014047 64 162 3.0 5.0 0.00 0.00 0.00 47 1004.8
20260505013543 65 236 1.0 7.0 0.00 0.00 0.00 47 1004.9
20260505013041 64 164 2.0 4.0 0.00 0.00 0.00 47 1004.5
20260505012539 65 220 2.0 5.0 0.00 0.00 0.00 47 1004.5
20260505012036 64 247 3.0 4.0 0.00 0.00 0.00 47 1004.6
20260505011537 65 152 2.0 8.0 0.00 0.00 0.00 47 1004.6
20260505011034 65 199 5.0 7.0 0.00 0.00 0.00 46 1004.8
20260505010529 64 179 2.0 3.0 0.00 0.00 0.00 48 1004.4
20260505010026 64 234 2.0 3.0 0.00 0.00 0.00 48 1004.6
20260505005523 65 267 2.0 4.0 0.00 0.00 0.00 47 1004.5
20260505005020 65 213 1.0 6.0 0.00 0.00 0.00 46 1004.3
20260505004517 66 167 2.0 5.0 0.00 0.00 0.00 47 1004.4
20260505004014 66 262 6.0 6.0 0.00 0.00 0.00 44 1004.2
20260505003511 66 153 1.0 5.0 0.00 0.00 0.00 45 1004.2
20260505003008 67 262 5.0 6.0 0.00 0.00 0.00 44 1004.4
20260505002503 67 220 2.0 4.0 0.00 0.00 0.00 44 1004.4
20260505002002 67 73 2.0 5.0 0.00 0.00 0.00 44 1004.2
20260505001459 67 170 0.0 6.0 0.00 0.00 0.00 43 1004.2
20260505000956 67 98 1.0 4.0 0.00 0.00 0.00 43 1004.0
20260505000454 67 202 3.0 7.0 0.00 0.00 0.00 43 1004.1
20260504235951 67 96 2.0 6.0 0.00 0.00 0.00 43 1004.0
20260504235448 67 188 1.0 5.0 0.00 0.00 0.00 42 1004.1
20260504234944 68 51 3.0 6.0 0.00 0.00 0.00 42 1004.0
20260504234441 68 246 3.0 8.0 0.00 0.00 0.00 41 1003.8
20260504233938 68 96 1.0 8.0 0.00 0.00 0.00 41 1003.9
20260504233434 69 316 1.0 7.0 0.00 0.00 0.00 41 1004.0
20260504232931 69 154 3.0 12.0 0.00 0.00 0.00 40 1003.8
20260504232428 69 229 8.0 13.0 0.00 0.00 0.00 39 1003.8
20260504231925 70 173 3.0 17.0 0.00 0.00 0.00 38 1003.7
20260504231421 70 209 6.0 11.0 0.00 0.00 0.00 38 1003.9
20260504230917 70 192 4.0 5.0 0.00 0.00 0.00 39 1003.8
20260504230415 70 229 1.0 5.0 0.00 0.00 0.00 39 1003.4
20260504225914 70 249 5.0 5.0 0.00 0.00 0.00 38 1003.3
20260504225410 71 329 2.0 3.0 0.00 0.00 0.00 38 1003.5
20260504224907 71 138 3.0 8.0 0.00 0.00 0.00 39 1003.5
20260504224404 71 252 3.0 4.0 0.00 0.00 0.00 38 1003.5
20260504223901 71 146 10.0 10.0 0.00 0.00 0.00 37 1003.7
20260504223356 71 158 2.0 9.0 0.00 0.00 0.00 37 1003.5
20260504222852 72 216 10.0 12.0 0.00 0.00 0.00 36 1003.7
20260504222349 72 165 3.0 13.0 0.00 0.00 0.00 38 1003.4
20260504221848 74 128 2.0 6.0 0.00 0.00 0.00 34 1003.4
20260504221344 73 256 3.0 10.0 0.00 0.00 0.00 32 1003.5
20260504220842 73 220 3.0 15.0 0.00 0.00 0.00 32 1003.3
20260504220338 74 256 5.0 8.0 0.00 0.00 0.00 31 1003.4
20260504215835 74 308 2.0 11.0 0.00 0.00 0.00 32 1003.4
20260504215331 74 217 2.0 8.0 0.00 0.00 0.00 32 1003.4
20260504214828 74 180 2.0 7.0 0.00 0.00 0.00 33 1003.5
20260504214325 74 288 4.0 10.0 0.00 0.00 0.00 33 1003.3
20260504213822 74 359 2.0 5.0 0.00 0.00 0.00 33 1003.3
20260504213317 74 211 5.0 13.0 0.00 0.00 0.00 32 1003.5
20260504212815 74 238 4.0 8.0 0.00 0.00 0.00 33 1003.4
20260504212311 74 217 7.0 13.0 0.00 0.00 0.00 31 1003.4
20260504211809 74 108 2.0 7.0 0.00 0.00 0.00 32 1003.3
20260504211304 74 125 3.0 9.0 0.00 0.00 0.00 33 1003.5
20260504210802 73 266 6.0 13.0 0.00 0.00 0.00 33 1003.5
20260504210259 73 252 6.0 7.0 0.00 0.00 0.00 34 1003.7
20260504205757 73 254 3.0 7.0 0.00 0.00 0.00 33 1003.9
20260504205254 73 123 6.0 11.0 0.00 0.00 0.00 33 1004.0
20260504204752 73 247 4.0 11.0 0.00 0.00 0.00 33 1003.8
20260504204250 73 285 5.0 12.0 0.00 0.00 0.00 34 1003.8
20260504203749 71 190 8.0 12.0 0.00 0.00 0.00 36 1004.1
20260504203246 71 208 5.0 9.0 0.00 0.00 0.00 36 1004.0
20260504202747 73 272 3.0 12.0 0.00 0.00 0.00 34 1004.1
20260504202244 73 246 3.0 8.0 0.00 0.00 0.00 35 1004.2
20260504201741 73 146 4.0 8.0 0.00 0.00 0.00 35 1004.4
20260504201238 73 1 3.0 9.0 0.00 0.00 0.00 37 1004.1
20260504200736 71 221 4.0 11.0 0.00 0.00 0.00 36 1004.4
20260504200231 72 279 4.0 17.0 0.00 0.00 0.00 37 1004.7
20260504195728 72 258 12.0 13.0 0.00 0.00 0.00 35 1004.7
20260504195224 71 213 2.0 6.0 0.00 0.00 0.00 36 1004.5
20260504194722 70 298 2.0 8.0 0.00 0.00 0.00 38 1004.7
20260504194218 70 246 4.0 10.0 0.00 0.00 0.00 38 1005.0
20260504193714 69 265 3.0 11.0 0.00 0.00 0.00 38 1004.7
20260504193212 69 327 2.0 9.0 0.00 0.00 0.00 38 1004.9
20260504192710 69 226 3.0 9.0 0.00 0.00 0.00 39 1004.8
20260504192208 70 272 9.0 18.0 0.00 0.00 0.00 37 1004.9
20260504191706 71 144 2.0 17.0 0.00 0.00 0.00 38 1004.9
20260504191202 70 65 3.0 17.0 0.00 0.00 0.00 38 1004.9
20260504190658 70 241 3.0 10.0 0.00 0.00 0.00 39 1005.1
20260504190154 71 239 3.0 12.0 0.00 0.00 0.00 38 1005.0
20260504185651 71 108 0.0 6.0 0.00 0.00 0.00 39 1005.0
20260504185148 70 117 4.0 9.0 0.00 0.00 0.00 39 1005.0
20260504184644 71 260 7.0 14.0 0.00 0.00 0.00 36 1005.1
20260504184139 70 48 6.0 15.0 0.00 0.00 0.00 38 1005.1
20260504183636 70 286 5.0 15.0 0.00 0.00 0.00 38 1005.2
20260504183133 71 229 7.0 19.0 0.00 0.00 0.00 37 1005.4
20260504182631 71 267 11.0 20.0 0.00 0.00 0.00 37 1005.5
20260504182128 71 166 4.0 19.0 0.00 0.00 0.00 37 1005.3
20260504181626 71 11 2.0 11.0 0.00 0.00 0.00 39 1005.2
20260504181123 71 309 5.0 10.0 0.00 0.00 0.00 38 1005.3
20260504180622 71 249 9.0 17.0 0.00 0.00 0.00 37 1005.6
20260504180121 70 248 4.0 12.0 0.00 0.00 0.00 38 1005.5
20260504175617 68 246 13.0 13.0 0.00 0.00 0.00 39 1005.5
20260504175114 70 274 10.0 14.0 0.00 0.00 0.00 39 1005.5
20260504174612 71 151 4.0 11.0 0.00 0.00 0.00 40 1005.5
20260504174108 71 251 5.0 9.0 0.00 0.00 0.00 37 1005.5
20260504173605 70 251 2.0 14.0 0.00 0.00 0.00 42 1005.5
20260504173103 70 181 4.0 14.0 0.00 0.00 0.00 40 1005.6
20260504172559 70 258 12.0 14.0 0.00 0.00 0.00 40 1005.8
20260504172056 69 233 10.0 13.0 0.00 0.00 0.00 40 1005.6
20260504171552 69 149 7.0 13.0 0.00 0.00 0.00 40 1005.5
20260504171050 68 265 6.0 16.0 0.00 0.00 0.00 39 1006.0
20260504170545 66 293 6.0 16.0 0.00 0.00 0.00 42 1005.8
20260504150929 64 26 3.0 17.0 0.00 0.00 0.00 43 1007.1
20260504150426 63 203 8.0 8.0 0.00 0.00 0.00 44 1007.1
20260504140852 58 265 5.0 15.0 0.00 0.00 0.00 45 1008.0
20260504140349 59 243 3.0 7.0 0.00 0.00 0.00 47 1008.1
20260504130817 54 268 4.0 6.0 0.00 0.00 0.00 52 1008.7
20260504130314 53 226 2.0 7.0 0.00 0.00 0.00 52 1008.8
20260504120237 45 53 1.0 3.0 0.00 0.00 0.00 86 1009.1
20260504110704 38 58 2.0 3.0 0.00 0.00 0.00 90 1009.4
20260504110201 37 101 2.0 2.0 0.00 0.00 0.00 91 1009.1
20260504100125 32 63 2.0 2.0 0.00 0.00 0.00 98 1009.0
20260504081518 34 88 1.0 2.0 0.00 0.00 0.00 94 1009.1
20260504081013 34 99 2.0 2.0 0.00 0.00 0.00 94 1009.1
20260504080510 34 80 1.0 2.0 0.00 0.00 0.00 94 1009.1
20260504050323 42 110 0.0 1.0 0.00 0.00 0.00 79 1009.1
20260504045820 42 38 0.0 1.0 0.00 0.00 0.00 79 1009.4
20260504045319 43 331 0.0 1.0 0.00 0.00 0.00 79 1009.3
20260504044817 43 21 0.0 2.0 0.00 0.00 0.00 78 1009.4
20260504044314 43 347 0.0 1.0 0.00 0.00 0.00 77 1009.3
20260504043812 43 178 1.0 2.0 0.00 0.00 0.00 77 1009.0
20260504043308 44 304 0.0 1.0 0.00 0.00 0.00 76 1009.1
20260504042806 44 278 2.0 2.0 0.00 0.00 0.00 75 1009.1
20260504042304 43 126 0.0 0.0 0.00 0.00 0.00 76 1009.3
20260504041759 44 102 0.0 2.0 0.00 0.00 0.00 74 1009.3
20260504041255 44 66 0.0 0.0 0.00 0.00 0.00 73 1009.2
20260504040751 44 119 0.0 1.0 0.00 0.00 0.00 74 1009.3
20260504040248 44 132 1.0 2.0 0.00 0.00 0.00 78 1009.1
20260504035744 46 81 0.0 2.0 0.00 0.00 0.00 75 1009.1